Weather History for MMPB - July, 2013

Change the Weather History Date:

Monday, July 15, 2013

  Actual Average Record
Temperature  
Mean Temperature 63 °F -  
Max Temperature 73 °F 72 °F 82 °F (2000)
Min Temperature 53 °F 51 °F 48 °F (1996)
Degree Days  
Heating Degree Days 2    
Growing Degree Days 13 (Base 50)    
Moisture  
Dew Point 53 °F    
Average Humidity 72    
Maximum Humidity 94    
Minimum Humidity 45    
Precipitation  
Precipitation 0.00 in - - ()
Sea Level Pressure  
Sea Level Pressure 30.11 in    
Wind  
Wind Speed 3 mph ()    
Max Wind Speed 15 mph    
Max Gust Speed -    
Visibility 5.4 miles    
Events Rain    
Averages and records for this station are not official NWS values.
T = Trace of Precipitation, MM = Missing Value Source: Averaged Metar Reports

Daily Weather History Graph

Daily Weather History Graph

Search for Another Location

Airport or City:

Trip Planner

Search our weather history database for the weather conditions in past years. The results will help you decide how hot, cold, wet, or windy it might be!

Date:

Astronomy

Jul. 15, 2013 Rise Set
Actual Time 7:04 AM CDT 8:14 PM CDT
Civil Twilight 6:40 AM CDT 8:38 PM CDT
Nautical Twilight 6:11 AM CDT 9:06 PM CDT
Astronomical Twilight 5:42 AM CDT 9:36 PM CDT
Moon 1:18 PM CDT (7/15) 12:29 AM CDT (7/15)
Length of Visible Light 13h 58m
Length of Day
13h 10m
Waxing Crescent, 45% of the Moon is Illuminated
Jul 15
Waxing Crescent
Jul 15
First Quarter
Jul 22
Full
Jul 29
Last Quarter
Aug 6
New

Hourly Weather History & Observations

Time (CDT) Temp. Dew Point Humidity Pressure Visibility Wind Dir Wind Speed Gust Speed Precip Events Conditions
12:45 AM 59 °F 56 °F 87% 29.83 in 3 mi Calm Calm - -   Partly Cloudy
1:00 AM 59 °F 56 °F 87% 29.83 in 3 mi Calm Calm - -   Partly Cloudy
3:45 AM 57 °F 54 °F 84% 29.81 in 3 mi Calm Calm - -   Scattered Clouds
5:50 AM 51.8 °F 50.0 °F 94% 30.27 in 5.0 mi WSW 4.6 mph - N/A   Scattered Clouds
6:45 AM 55 °F 52 °F 87% 29.86 in 3 mi Calm Calm - -   Scattered Clouds
6:45 AM 53.6 °F 51.8 °F 94% 30.27 in 5.0 mi NNW 3.5 mph - N/A   Scattered Clouds
7:44 AM 53.6 °F 50.0 °F 88% 30.29 in 5.0 mi WNW 3.5 mph - N/A   Scattered Clouds
8:49 AM 57.2 °F 53.6 °F 88% 30.30 in 5.0 mi NNW 4.6 mph - N/A   Scattered Clouds
9:42 AM 62.6 °F 53.6 °F 72% 30.30 in 5.0 mi NW 3.5 mph - N/A   Scattered Clouds
9:55 AM 60 °F 52 °F 66% 29.90 in 3 mi ESE 1.2 mph - -   Haze
10:40 AM 64.4 °F 53.6 °F 68% 30.30 in 6.0 mi SE 5.8 mph - N/A   Scattered Clouds
11:43 AM 68.0 °F 53.6 °F 60% 30.30 in 6.0 mi East 3.5 mph - N/A   Scattered Clouds
12:43 PM 71.6 °F 53.6 °F 53% 30.29 in 7.0 mi WSW 2.3 mph - N/A   Scattered Clouds
12:50 PM 73 °F 58 °F 50% 29.86 in 3 mi South 2.3 mph - -   Haze
1:44 PM 73.4 °F 51.8 °F 47% 30.26 in 7.0 mi South 4.6 mph - N/A   Scattered Clouds
2:42 PM 73.4 °F 53.6 °F 50% 30.23 in 7.0 mi South 11.5 mph - N/A   Mostly Cloudy
3:45 PM 71.6 °F 55.4 °F 57% 30.21 in 8.0 mi South 15.0 mph - N/A   Mostly Cloudy
3:55 PM 69 °F 52 °F 45% 29.77 in 6 mi South 2.2 mph - -   Haze
4:41 PM 69.8 °F 53.6 °F 56% 30.20 in 8.0 mi South 8.1 mph - N/A   Mostly Cloudy
5:45 PM 62.6 °F 50.0 °F 63% 30.19 in 7.0 mi NNE 11.5 mph - N/A Rain Light Rain
6:43 PM 59.0 °F 51.8 °F 77% 30.24 in 6.0 mi NW 8.1 mph - N/A Rain Rain
7:45 PM 57.2 °F 53.6 °F 88% 30.26 in 8.0 mi SSW 9.2 mph - N/A   Mostly Cloudy
8:46 PM 59.0 °F 53.6 °F 82% 30.26 in 8.0 mi SW 3.5 mph - N/A   Mostly Cloudy
9:45 PM 60 °F 56 °F 81% 29.66 in 3 mi Calm Calm - -   Haze